TimeEDT,TemperatureF,Dew PointF,Humidity,Sea Level PressureIn,VisibilityMPH,Wind Direction,Wind SpeedMPH,Gust SpeedMPH,PrecipitationIn,Events,Conditions,WindDirDegrees,DateUTC
12:15 AM,57.2,53.6,88,29.76,10.0,SW,12.7,19.6,N/A,,Scattered Clouds,230,2012-10-01 04:15:00
12:35 AM,59.0,51.8,77,29.76,10.0,SW,10.4,18.4,N/A,,Partly Cloudy,220,2012-10-01 04:35:00
12:55 AM,59.0,50.0,72,29.76,10.0,SW,11.5,-,N/A,,Scattered Clouds,230,2012-10-01 04:55:00
1:15 AM,59.0,51.8,77,29.76,10.0,WSW,10.4,-,N/A,,Partly Cloudy,240,2012-10-01 05:15:00
1:35 AM,57.2,50.0,77,29.76,10.0,WSW,12.7,-,N/A,,Clear,250,2012-10-01 05:35:00
1:55 AM,57.2,48.2,72,29.76,10.0,WSW,12.7,-,N/A,,Scattered Clouds,250,2012-10-01 05:55:00
2:15 AM,57.2,46.4,67,29.76,10.0,WSW,16.1,20.7,N/A,,Partly Cloudy,250,2012-10-01 06:15:00
2:35 AM,57.2,44.6,63,29.76,10.0,WSW,17.3,21.9,N/A,,Clear,250,2012-10-01 06:35:00
2:55 AM,57.2,44.6,63,29.76,10.0,West,13.8,-,N/A,,Clear,260,2012-10-01 06:55:00
3:15 AM,57.2,46.4,67,29.76,10.0,WSW,19.6,25.3,N/A,,Clear,250,2012-10-01 07:15:00
3:35 AM,55.4,46.4,72,29.76,10.0,WSW,15.0,23.0,N/A,,Clear,250,2012-10-01 07:35:00
3:55 AM,55.4,46.4,72,29.76,10.0,WSW,13.8,18.4,N/A,,Clear,240,2012-10-01 07:55:00
4:15 AM,55.4,46.4,72,29.76,10.0,WSW,17.3,23.0,N/A,,Clear,250,2012-10-01 08:15:00
4:35 AM,55.4,48.2,77,29.76,10.0,WSW,18.4,23.0,N/A,,Clear,250,2012-10-01 08:35:00
4:55 AM,55.4,48.2,77,29.76,10.0,West,15.0,-,N/A,,Clear,260,2012-10-01 08:55:00
5:15 AM,55.4,48.2,77,29.77,10.0,West,11.5,18.4,N/A,,Clear,260,2012-10-01 09:15:00
5:35 AM,53.6,48.2,82,29.77,10.0,West,10.4,-,N/A,,Clear,260,2012-10-01 09:35:00
5:55 AM,55.4,48.2,77,29.77,10.0,West,15.0,19.6,N/A,,Clear,260,2012-10-01 09:55:00
6:15 AM,55.4,48.2,77,29.77,10.0,West,17.3,23.0,N/A,,Clear,260,2012-10-01 10:15:00
6:35 AM,55.4,46.4,72,29.78,10.0,West,13.8,19.6,N/A,,Clear,260,2012-10-01 10:35:00
6:55 AM,55.4,48.2,77,29.78,10.0,West,13.8,20.7,N/A,,Clear,260,2012-10-01 10:55:00
7:15 AM,55.4,48.2,77,29.78,10.0,West,12.7,-,N/A,,Partly Cloudy,260,2012-10-01 11:15:00
7:35 AM,57.2,48.2,72,29.78,10.0,WSW,13.8,19.6,N/A,,Clear,250,2012-10-01 11:35:00
7:55 AM,57.2,48.2,72,29.79,10.0,WSW,18.4,23.0,N/A,,Clear,250,2012-10-01 11:55:00
8:15 AM,59.0,50.0,72,29.79,10.0,WSW,13.8,21.9,N/A,,Clear,250,2012-10-01 12:15:00
8:35 AM,59.0,50.0,72,29.79,10.0,WSW,17.3,21.9,N/A,,Clear,250,2012-10-01 12:35:00
8:55 AM,59.0,50.0,72,29.79,10.0,West,18.4,25.3,N/A,,Clear,260,2012-10-01 12:55:00
9:15 AM,60.8,50.0,68,29.79,10.0,WSW,19.6,27.6,N/A,,Clear,250,2012-10-01 13:15:00
9:35 AM,62.6,50.0,63,29.79,10.0,West,24.2,33.4,N/A,,Clear,260,2012-10-01 13:35:00
9:55 AM,62.6,50.0,63,29.79,10.0,WSW,20.7,27.6,N/A,,Clear,250,2012-10-01 13:55:00
10:15 AM,64.4,50.0,59,29.79,10.0,WSW,21.9,31.1,N/A,,Clear,250,2012-10-01 14:15:00
10:35 AM,64.4,53.6,68,29.79,10.0,WSW,26.5,32.2,N/A,,Partly Cloudy,240,2012-10-01 14:35:00
10:55 AM,64.4,51.8,64,29.79,10.0,WSW,24.2,35.7,N/A,,Clear,250,2012-10-01 14:55:00
11:15 AM,64.4,50.0,59,29.79,10.0,WSW,25.3,34.5,N/A,,Clear,250,2012-10-01 15:15:00
11:35 AM,64.4,50.0,59,29.79,-9999.0,WSW,25.3,34.5,N/A,,Unknown,240,2012-10-01 15:35:00
11:55 AM,64.4,50.0,59,29.79,10.0,WSW,27.6,36.8,N/A,,Clear,240,2012-10-01 15:55:00
12:15 PM,64.4,50.0,59,29.79,10.0,WSW,28.8,39.1,N/A,,Clear,250,2012-10-01 16:15:00
12:35 PM,64.4,50.0,59,29.79,10.0,WSW,24.2,31.1,N/A,,Clear,250,2012-10-01 16:35:00
12:55 PM,66.2,51.8,60,29.79,10.0,WSW,20.7,27.6,N/A,,Clear,250,2012-10-01 16:55:00
1:15 PM,66.2,53.6,64,29.79,10.0,WSW,20.7,31.1,N/A,,Clear,250,2012-10-01 17:15:00
1:35 PM,66.2,53.6,64,29.79,10.0,WSW,19.6,26.5,N/A,,Clear,250,2012-10-01 17:35:00
1:55 PM,66.2,53.6,64,29.79,10.0,WSW,17.3,27.6,N/A,,Clear,240,2012-10-01 17:55:00
2:15 PM,66.2,53.6,64,29.79,10.0,WSW,23.0,27.6,N/A,,Clear,250,2012-10-01 18:15:00
2:35 PM,66.2,53.6,64,29.80,10.0,WSW,20.7,28.8,N/A,,Clear,250,2012-10-01 18:35:00
2:55 PM,66.2,53.6,64,29.80,10.0,SW,17.3,28.8,N/A,,Clear,230,2012-10-01 18:55:00
3:15 PM,66.2,53.6,64,29.80,10.0,SW,17.3,25.3,N/A,,Clear,230,2012-10-01 19:15:00
3:35 PM,66.2,53.6,64,29.81,10.0,WSW,15.0,20.7,N/A,,Clear,240,2012-10-01 19:35:00
3:55 PM,66.2,53.6,64,29.81,10.0,WSW,17.3,24.2,N/A,,Clear,240,2012-10-01 19:55:00
4:15 PM,66.2,55.4,68,29.82,10.0,WSW,19.6,27.6,N/A,,Clear,250,2012-10-01 20:15:00
4:35 PM,64.4,53.6,68,29.82,10.0,WSW,20.7,28.8,N/A,,Clear,240,2012-10-01 20:35:00
4:55 PM,64.4,55.4,73,29.83,10.0,WSW,18.4,24.2,N/A,,Clear,240,2012-10-01 20:55:00
5:15 PM,64.4,53.6,68,29.84,10.0,WSW,17.3,26.5,N/A,,Clear,250,2012-10-01 21:15:00
5:35 PM,62.6,53.6,72,29.84,10.0,WSW,15.0,25.3,N/A,,Clear,250,2012-10-01 21:35:00
5:55 PM,62.6,55.4,77,29.86,10.0,WSW,13.8,17.3,N/A,,Clear,240,2012-10-01 21:55:00
6:15 PM,62.6,55.4,77,29.86,10.0,West,13.8,-,N/A,,Clear,260,2012-10-01 22:15:00
6:35 PM,62.6,55.4,77,29.87,10.0,SW,8.1,-,N/A,,Partly Cloudy,230,2012-10-01 22:35:00
6:55 PM,60.8,55.4,82,29.88,10.0,WSW,8.1,-,N/A,,Partly Cloudy,240,2012-10-01 22:55:00
7:15 PM,60.8,55.4,82,29.89,10.0,West,8.1,-,N/A,,Partly Cloudy,260,2012-10-01 23:15:00
7:35 PM,62.6,55.4,77,29.90,10.0,West,9.2,-,N/A,,Mostly Cloudy,260,2012-10-01 23:35:00
7:55 PM,60.8,53.6,77,29.92,10.0,West,9.2,-,N/A,,Partly Cloudy,260,2012-10-01 23:55:00
8:15 PM,60.8,53.6,77,29.92,10.0,West,10.4,-,N/A,,Clear,260,2012-10-02 00:15:00
8:35 PM,59.0,53.6,82,29.92,10.0,West,8.1,-,N/A,,Clear,260,2012-10-02 00:35:00
8:55 PM,59.0,53.6,82,29.93,10.0,WSW,5.8,-,N/A,,Clear,250,2012-10-02 00:55:00
9:15 PM,59.0,53.6,82,29.94,10.0,West,6.9,-,N/A,,Clear,270,2012-10-02 01:15:00
9:35 PM,57.2,53.6,88,29.95,10.0,West,6.9,-,N/A,,Clear,270,2012-10-02 01:35:00
9:55 PM,59.0,53.6,82,29.95,10.0,West,8.1,-,N/A,,Clear,260,2012-10-02 01:55:00
10:15 PM,59.0,53.6,82,29.96,10.0,West,8.1,-,N/A,,Clear,270,2012-10-02 02:15:00
10:35 PM,59.0,53.6,82,29.95,10.0,West,5.8,-,N/A,,Clear,270,2012-10-02 02:35:00
10:55 PM,57.2,53.6,88,29.96,10.0,West,5.8,-,N/A,,Clear,270,2012-10-02 02:55:00
11:15 PM,57.2,53.6,88,29.96,10.0,West,5.8,-,N/A,,Clear,280,2012-10-02 03:15:00
11:35 PM,57.2,51.8,82,29.96,10.0,West,6.9,-,N/A,,Clear,270,2012-10-02 03:35:00
11:55 PM,57.2,51.8,82,29.96,10.0,West,8.1,-,N/A,,Clear,280,2012-10-02 03:55:00